DLH878 EDDF-ENTC

Flight info

Callsign DLH878
Flight time N/A
Altitude 35000
Route MARUN3W MARUN Y150 TOLGI DCT AGATI DCT GITER DCT KOR DCT ROKAM/N0448F360 L997 LASLI/N0443F350 DCT BUGAX/N0443F360 DCT GUBAV/N0445F370 DCT PENNO DCT ATWEG
Aircraft A321/M-SDE2E3FGIJ1LORWXYZ/HB1

Departure

Time 2026-04-16 07:20
Airport Frankfurt Main Airport (EDDF)

Arrival

Time N/A
Airport Tromsø Airport (ENTC)
Time Latitude Longitude Altitude Speed Heading
2026-04-16 06:54 50.04435 8.56330 363 ft 0 kts 170°
2026-04-16 07:08 50.04437 8.56329 366 ft 1 kts 170°
2026-04-16 07:08 50.04454 8.56325 368 ft 3 kts 170°
2026-04-16 07:08 50.04473 8.56319 371 ft 3 kts 177°
2026-04-16 07:08 50.04491 8.56322 370 ft 3 kts 212°
2026-04-16 07:09 50.04505 8.56341 369 ft 3 kts 244°
2026-04-16 07:09 50.04510 8.56360 369 ft 3 kts 249°
2026-04-16 07:09 50.04515 8.56382 367 ft 1 kts 249°
2026-04-16 07:09 50.04516 8.56383 367 ft 0 kts 249°
2026-04-16 07:13 50.04515 8.56381 367 ft 1 kts 249°
2026-04-16 07:13 50.04504 8.56338 370 ft 8 kts 249°
2026-04-16 07:13 50.04475 8.56219 371 ft 14 kts 249°
2026-04-16 07:13 50.04440 8.56075 369 ft 15 kts 249°
2026-04-16 07:14 50.04391 8.55937 369 ft 14 kts 213°
2026-04-16 07:14 50.04295 8.55952 369 ft 14 kts 175°
2026-04-16 07:14 50.04198 8.55922 366 ft 15 kts 183°
2026-04-16 07:14 50.04101 8.55971 366 ft 15 kts 147°
2026-04-16 07:15 50.04073 8.56074 369 ft 9 kts 57°
2026-04-16 07:15 50.04110 8.56205 370 ft 20 kts 68°
2026-04-16 07:15 50.04162 8.56431 367 ft 23 kts 72°
2026-04-16 07:15 50.04219 8.56663 373 ft 23 kts 68°
2026-04-16 07:16 50.04274 8.56898 369 ft 23 kts 69°
2026-04-16 07:16 50.04331 8.57136 369 ft 24 kts 69°
2026-04-16 07:16 50.04389 8.57379 368 ft 24 kts 70°
2026-04-16 07:16 50.04451 8.57626 368 ft 24 kts 70°
2026-04-16 07:17 50.04507 8.57875 370 ft 25 kts 70°
2026-04-16 07:17 50.04567 8.58129 367 ft 25 kts 70°
2026-04-16 07:17 50.04630 8.58387 372 ft 26 kts 69°
2026-04-16 07:17 50.04656 8.58531 373 ft 5 kts 114°
2026-04-16 07:18 50.04622 8.58573 368 ft 6 kts 158°
2026-04-16 07:18 50.04597 8.58587 372 ft 0 kts 160°
2026-04-16 07:18 50.04595 8.58588 372 ft 0 kts 160°
2026-04-16 07:18 50.04593 8.58589 371 ft 2 kts 160°
2026-04-16 07:19 50.04550 8.58612 372 ft 11 kts 160°
2026-04-16 07:19 50.04486 8.58583 373 ft 11 kts 238°
2026-04-16 07:19 50.04476 8.58544 373 ft 1 kts 248°
2026-04-16 07:19 50.04468 8.58516 376 ft 5 kts 248°
2026-04-16 07:20 50.04417 8.58304 370 ft 54 kts 249°
2026-04-16 07:20 50.04201 8.57393 369 ft 122 kts 250°
2026-04-16 07:20 50.03847 8.55873 425 ft 170 kts 250°
2026-04-16 07:20 50.03456 8.54146 1165 ft 169 kts 249°
2026-04-16 07:21 50.03039 8.52398 1823 ft 177 kts 250°
2026-04-16 07:21 50.02555 8.50557 2170 ft 193 kts 241°
2026-04-16 07:21 50.01641 8.48964 2642 ft 202 kts 218°
2026-04-16 07:21 50.00353 8.48050 3195 ft 208 kts 194°
2026-04-16 07:22 49.98905 8.47711 3764 ft 211 kts 190°
2026-04-16 07:22 49.97464 8.47394 4348 ft 213 kts 190°
2026-04-16 07:22 49.95997 8.47031 4954 ft 213 kts 196°
2026-04-16 07:22 49.94526 8.46364 5252 ft 230 kts 199°
2026-04-16 07:23 49.92933 8.45607 5563 ft 245 kts 202°
2026-04-16 07:23 49.91523 8.44175 6101 ft 245 kts 229°
2026-04-16 07:23 49.90718 8.41876 6672 ft 245 kts 258°
2026-04-16 07:23 49.90711 8.39251 7363 ft 246 kts 285°
2026-04-16 07:24 49.91483 8.36936 8038 ft 249 kts 312°
2026-04-16 07:24 49.92900 8.35401 8725 ft 253 kts 336°
2026-04-16 07:24 49.94579 8.34309 9111 ft 270 kts 336°
2026-04-16 07:24 49.96338 8.33175 9690 ft 276 kts 336°
2026-04-16 07:25 49.98125 8.32023 10371 ft 279 kts 336°
2026-04-16 07:25 49.99980 8.30822 10591 ft 300 kts 336°
2026-04-16 07:25 50.01986 8.29568 10725 ft 321 kts 341°
2026-04-16 07:25 50.04222 8.28859 11099 ft 333 kts 354°
2026-04-16 07:26 50.06564 8.28957 11642 ft 341 kts
2026-04-16 07:26 50.08858 8.29866 12196 ft 347 kts 17°
2026-04-16 07:26 50.11169 8.31086 12769 ft 351 kts 16°
2026-04-16 07:26 50.13500 8.32313 13335 ft 355 kts 16°
2026-04-16 07:27 50.15849 8.33547 13896 ft 359 kts 16°
2026-04-16 07:27 50.18146 8.34746 14398 ft 363 kts 16°
2026-04-16 07:28 50.20531 8.35995 14925 ft 366 kts 15°
2026-04-16 07:28 50.22960 8.37271 15475 ft 368 kts 15°
2026-04-16 07:28 50.25400 8.38552 16020 ft 371 kts 15°
2026-04-16 07:28 50.27856 8.39845 16561 ft 373 kts 15°
2026-04-16 07:29 50.30328 8.41152 17084 ft 376 kts 15°
2026-04-16 07:29 50.32812 8.42488 17599 ft 379 kts 16°
2026-04-16 07:29 50.35277 8.43834 18108 ft 381 kts 16°
2026-04-16 07:29 50.37795 8.45219 18600 ft 384 kts 16°
2026-04-16 07:30 50.40330 8.46615 19043 ft 387 kts 16°
2026-04-16 07:30 50.42883 8.48019 19476 ft 390 kts 15°
2026-04-16 07:30 50.45458 8.49432 19892 ft 392 kts 15°
2026-04-16 07:30 50.48049 8.50845 20309 ft 395 kts 15°
2026-04-16 07:31 50.50642 8.52169 20715 ft 397 kts 13°
2026-04-16 07:31 50.53298 8.53440 21119 ft 399 kts 12°
2026-04-16 07:31 50.55975 8.54678 21529 ft 402 kts 12°
2026-04-16 07:31 50.58684 8.55922 21927 ft 405 kts 12°
2026-04-16 07:32 50.61365 8.57170 22318 ft 408 kts 12°
2026-04-16 07:32 50.64097 8.58465 22699 ft 411 kts 12°
2026-04-16 07:32 50.66848 8.59788 23069 ft 413 kts 13°
2026-04-16 07:32 50.69607 8.61125 23453 ft 416 kts 12°
2026-04-16 07:33 50.72386 8.62471 23815 ft 419 kts 12°
2026-04-16 07:33 50.75183 8.63826 24139 ft 421 kts 12°
2026-04-16 07:33 50.77982 8.65248 24467 ft 425 kts 17°
2026-04-16 07:33 50.80663 8.67315 24782 ft 433 kts 27°
2026-04-16 07:34 50.83118 8.70152 25092 ft 441 kts 38°
2026-04-16 07:34 50.85227 8.73632 25404 ft 447 kts 49°
2026-04-16 07:34 50.87145 8.77619 25719 ft 451 kts 50°
2026-04-16 07:34 50.89016 8.81534 26039 ft 453 kts 50°
2026-04-16 07:35 50.90923 8.85523 26358 ft 455 kts 50°
2026-04-16 07:35 50.92840 8.89540 26672 ft 457 kts 50°
2026-04-16 07:35 50.94769 8.93580 26970 ft 459 kts 50°
2026-04-16 07:35 50.96698 8.97624 27272 ft 461 kts 50°
2026-04-16 07:36 50.98646 9.01715 27581 ft 464 kts 50°
2026-04-16 07:36 51.00594 9.05819 27878 ft 466 kts 50°
2026-04-16 07:36 51.02515 9.09871 28073 ft 466 kts 50°
2026-04-16 07:36 51.04469 9.14002 28354 ft 469 kts 50°
2026-04-16 07:37 51.06438 9.18172 28600 ft 472 kts 49°
2026-04-16 07:37 51.08842 9.22455 28916 ft 469 kts 38°
2026-04-16 07:37 51.11379 9.25698 29174 ft 466 kts 29°
2026-04-16 07:38 51.14177 9.28276 29444 ft 462 kts 20°
2026-04-16 07:38 51.17149 9.30137 29711 ft 458 kts 11°
2026-04-16 07:38 51.20234 9.31327 29974 ft 456 kts
2026-04-16 07:38 51.23320 9.32381 30226 ft 458 kts
2026-04-16 07:39 51.26447 9.33453 30458 ft 460 kts
2026-04-16 07:39 51.29585 9.34534 30647 ft 461 kts
2026-04-16 07:39 51.32734 9.35627 30844 ft 463 kts
2026-04-16 07:39 51.35890 9.36728 31083 ft 463 kts
2026-04-16 07:40 51.39005 9.37820 31369 ft 462 kts
2026-04-16 07:40 51.42159 9.38926 31652 ft 462 kts
2026-04-16 07:40 51.45306 9.40029 31929 ft 461 kts
2026-04-16 07:40 51.48443 9.41126 32204 ft 461 kts
2026-04-16 07:41 51.51534 9.42211 32482 ft 460 kts
2026-04-16 07:41 51.54663 9.43307 32770 ft 459 kts
2026-04-16 07:41 51.57787 9.44401 33048 ft 459 kts
2026-04-16 07:41 51.60902 9.45497 33331 ft 458 kts
2026-04-16 07:42 51.64023 9.46597 33609 ft 458 kts
2026-04-16 07:42 51.66088 9.47324 33789 ft 457 kts
2026-04-16 07:42 51.70204 9.48772 34143 ft 456 kts
2026-04-16 07:42 51.73310 9.49866 34364 ft 456 kts
2026-04-16 07:43 51.76417 9.50966 34548 ft 456 kts
2026-04-16 07:43 51.79517 9.52072 34753 ft 456 kts
2026-04-16 07:43 51.81568 9.52806 34885 ft 456 kts
2026-04-16 07:43 51.84671 9.53957 35085 ft 457 kts
2026-04-16 07:44 51.87757 9.55239 35174 ft 457 kts
2026-04-16 07:44 51.93885 9.58066 35188 ft 456 kts 11°
2026-04-16 07:45 51.99943 9.60925 35186 ft 455 kts 10°
2026-04-16 07:45 52.06050 9.63715 35180 ft 455 kts 10°
2026-04-16 07:46 52.12155 9.66454 35176 ft 455 kts 10°
2026-04-16 07:46 52.18226 9.69182 35183 ft 455 kts 10°
2026-04-16 07:47 52.24339 9.71961 35188 ft 456 kts 10°